Wetbulb
75.13 78.22 77.96 77.58 77.02 77.55 78.09 78.47 78.11 77.76 77.18 76.87 76.82 77.13 76.92 76.45 76.67 76.85 76.95 77.13 77.66 76.96 76.60 75.64 76.01 76.37 75.33 75.42 74.34 74.09 74.18 74.28 74.17 74.39 74.23 74.00 73.79 73.46 72.94 72.55 72.27 73.41 72.15
76.66 77.94 77.48 77.73 77.35 77.40 77.78 78.34 78.09 77.28 76.67 76.57 77.00 77.20 76.92 76.55 77.07 77.10 76.95 76.93 77.45 76.82 76.55 75.65 76.18 76.35 75.09 74.78 74.95 74.21 74.36 74.66 75.01 74.96 75.04 74.68 73.96 73.37 72.79 72.45 72.00 73.73 72.12
77.22 78.23 77.32 77.71 77.35 77.32 77.63 77.96 78.00 77.91 77.53 77.53 77.08 77.05 76.87 76.87 76.90 76.75 76.87 76.57 76.82 76.69 76.29 75.65 75.23 75.53 75.13 74.65 74.79 74.69 74.44 74.55 75.27 75.39 75.45 76.38 75.57 74.25 72.97 72.46 71.70 72.36 72.20
77.74 78.00 77.20 77.42 77.45 77.07 76.85 77.27 77.57 77.80 77.95 77.97 77.83 77.20 77.15 77.05 76.87 76.50 76.25 76.32 76.64 76.31 75.95 75.53 74.81 74.30 74.27 74.32 74.43 74.19 74.28 74.43 75.07 75.23 76.04 75.90 74.67 74.01 73.14 72.65 72.68 72.55 72.59
78.00 78.26 78.33 77.55 77.38 76.72 76.45 76.77 77.21 77.41 77.44 77.57 77.68 77.58 77.28 76.92 76.70 76.49 76.17 76.01 76.37 75.96 75.31 75.07 74.21 73.43 73.15 73.45 74.05 74.14 73.99 74.17 74.65 74.65 74.98 75.62 76.31 75.13 73.67 73.38 73.53 73.40 73.17
77.85 78.07 77.74 77.49 77.27 77.05 76.42 76.27 76.69 76.84 76.99 77.27 77.20 76.92 76.75 76.40 76.29 76.27 76.10 76.29 76.25 75.78 75.10 74.79 74.42 73.51 72.91 72.97 73.40 73.72 73.92 73.98 73.80 74.66 74.79 75.12 75.12 73.54 74.19 74.13 74.18 73.19 73.24
77.20 77.98 78.27 77.57 77.19 76.72 76.27 76.02 76.19 76.62 76.64 76.69 76.77 76.40 76.17 76.24 76.14 76.07 76.12 76.27 76.41 76.11 75.59 74.99 74.41 74.00 73.03 73.25 73.77 73.85 73.62 73.68 73.49 75.14 76.42 76.83 76.97 74.67 74.51 74.54 74.41 73.97 73.29
77.06 77.55 78.29 77.48 77.09 76.82 76.32 76.04 76.14 76.30 76.36 76.31 76.34 76.22 76.14 76.04 75.89 75.79 75.84 75.92 76.09 76.01 75.73 75.62 74.91 73.76 73.64 73.19 73.28 73.61 73.77 73.83 74.19 76.00 75.44 76.44 76.20 74.38 74.57 75.27 74.70 74.14 73.04
77.25 77.14 78.06 77.49 77.54 76.65 76.54 76.21 75.93 76.00 76.05 76.02 75.88 75.93 75.96 75.67 75.69 75.54 75.57 75.64 75.57 75.72 75.56 75.21 74.84 74.04 73.32 72.99 73.06 73.04 73.16 73.27 73.41 75.08 75.12 75.94 73.82 73.71 74.77 75.63 74.83 73.69 72.91
77.30 77.23 77.43 77.71 77.42 77.33 76.89 76.13 75.83 75.46 75.46 75.57 75.43 75.61 75.61 75.22 75.17 75.22 75.70 75.71 75.69 75.69 75.44 75.12 74.64 74.09 73.42 73.17 73.17 73.00 72.92 72.69 72.13 73.26 74.23 75.70 73.61 73.63 74.82 75.89 75.01 73.74 72.94
77.06 77.67 77.90 77.63 77.80 77.34 77.01 77.24 75.72 75.46 75.06 74.86 75.04 75.16 74.97 73.64 74.70 74.93 74.47 75.74 75.72 75.67 75.57 75.24 74.99 74.47 74.02 73.52 73.25 72.82 72.41 69.99 69.62 70.42 72.31 74.52 72.50 73.25 75.11 76.09 75.84 74.64 73.27
75.37 76.63 77.78 78.45 77.89 77.60 76.29 77.85 77.03 76.50 75.78 75.01 74.83 75.44 74.60 74.78 74.97 74.15 74.98 75.12 75.21 75.53 75.46 75.51 75.13 74.83 74.54 73.47 73.83 72.80 71.46 69.67 69.34 70.06 71.06 74.05 72.72 72.29 73.73 75.97 76.30 75.24 74.17
69.64 72.57 75.16 78.45 79.01 78.22 77.07 77.12 76.75 75.97 76.14 76.38 76.18 76.25 76.04 75.48 75.19 74.34 74.09 74.66 74.80 74.79 74.80 75.03 75.76 75.71 74.38 73.69 73.13 72.30 71.88 70.76 70.11 70.11 71.21 73.59 72.93 72.19 72.81 74.37 75.87 75.86 74.66
65.96 68.61 74.08 77.33 78.95 78.97 77.92 76.87 76.80 75.26 75.80 75.27 75.06 75.28 75.27 74.42 75.21 74.36 74.21 74.84 74.91 74.67 74.10 74.04 73.59 73.92 74.20 74.35 73.72 73.04 72.86 72.23 71.59 70.51 70.94 72.95 72.47 72.11 72.20 73.74 74.74 75.92 75.28
61.78 67.44 71.82 76.86 78.80 78.47 77.69 77.72 76.96 76.58 76.16 76.12 76.22 76.20 75.70 74.84 75.68 74.18 72.83 73.00 73.15 73.79 73.30 72.86 73.61 74.36 73.85 73.91 73.27 72.45 72.27 72.57 72.46 71.99 71.72 72.88 71.79 71.79 71.61 72.93 74.07 75.19 76.21
61.77 63.81 70.87 75.34 78.20 77.09 78.25 78.35 77.44 77.31 77.13 76.53 75.77 76.53 76.03 76.00 76.21 76.17 76.00 75.11 75.09 73.92 74.04 74.21 73.62 73.77 73.83 73.86 73.86 73.45 72.60 72.17 72.31 72.37 71.77 72.14 71.84 70.90 71.02 71.90 72.99 74.50 76.62
62.30 65.16 72.61 76.38 78.60 77.56 77.55 77.69 77.72 77.31 76.57 76.16 75.70 76.56 76.15 75.46 75.91 76.37 75.54 74.05 72.66 73.04 74.03 73.72 73.89 73.67 73.51 73.55 73.59 74.49 74.62 73.83 72.90 72.69 72.68 72.25 71.90 70.75 70.83 71.25 72.03 73.05 75.74
63.37 65.06 73.04 72.68 77.31 77.90 76.93 77.34 76.70 76.95 76.62 76.67 76.00 76.02 76.39 76.61 76.16 74.50 70.95 69.91 70.78 71.16 70.78 70.58 70.80 70.37 70.55 70.87 71.43 72.59 73.42 74.76 74.00 73.16 73.30 73.33 74.10 74.24 72.37 70.80 71.34 72.48 74.01
64.20 65.33 68.96 74.92 75.90 77.56 76.57 77.09 76.97 76.59 76.83 76.57 76.57 75.88 73.43 71.54 72.12 71.73 69.65 68.65 70.29 68.42 68.52 68.68 68.77 69.61 69.51 69.96 69.72 70.55 72.07 72.49 74.40 73.98 73.34 73.63 74.25 74.62 74.34 71.62 70.56 71.64 72.93
63.08 65.33 69.71 74.58 76.41 76.40 76.11 76.24 75.80 75.73 75.25 73.18 70.51 69.81 70.83 69.93 69.06 68.95 67.27 68.44 68.79 66.25 66.05 66.46 68.48 68.45 68.20 68.04 67.94 68.82 70.63 71.14 72.96 73.25 74.21 74.20 74.30 74.59 75.06 73.01 72.16 71.29 72.01
65.32 68.41 71.18 73.87 75.35 75.34 74.15 73.34 71.77 68.66 68.44 68.25 68.50 69.23 68.52 67.76 67.54 68.33 66.36 66.45 67.04 65.89 66.83 68.11 67.85 67.99 66.59 68.16 66.68 66.97 67.93 69.95 71.35 72.06 73.27 73.79 74.30 74.40 74.67 74.22 72.85 71.37 71.67
66.18 68.06 69.18 69.94 70.96 71.16 69.79 69.35 68.58 67.94 67.50 66.88 67.25 67.95 67.57 66.80 67.46 67.26 67.28 66.54 67.08 64.90 67.46 67.11 67.80 66.40 66.43 67.96 66.23 65.71 63.44 65.32 67.18 69.52 71.60 72.46 73.25 73.93 73.78 74.33 73.95 73.54 73.01
65.42 66.19 66.60 67.63 68.22 68.36 68.70 67.70 67.18 67.18 66.15 65.22 66.08 67.10 67.31 66.36 66.55 66.82 67.07 66.85 67.05 66.56 63.77 67.71 67.24 67.61 63.71 66.74 68.37 66.27 62.58 61.01 63.84 67.56 69.89 71.25 72.30 72.51 73.34 74.38 75.02 74.10 75.26
63.91 65.21 65.84 66.05 66.47 66.57 67.36 66.91 67.20 64.05 63.49 63.24 64.55 64.80 63.80 64.63 64.46 64.64 64.99 64.89 65.38 64.97 66.68 65.55 65.07 65.82 66.98 63.81 65.81 68.06 68.74 68.13 62.58 62.51 65.97 68.10 70.63 71.19 72.75 73.08 74.21 74.61 74.60
63.60 63.62 64.04 64.31 64.32 64.47 64.68 64.67 62.85 62.62 62.43 63.60 62.35 62.39 63.57 63.65 63.19 62.48 63.11 63.38 63.18 62.81 65.07 65.02 65.18 66.59 64.85 64.25 63.98 65.40 66.91 66.69 67.36 64.64 61.98 64.16 66.42 68.12 70.37 70.69 71.82 74.18 73.79
61.59 61.74 62.54 62.59 62.73 63.00 62.66 62.51 62.45 60.65 60.73 60.34 61.04 59.79 59.69 59.97 60.52 61.77 61.63 62.00 62.16 62.00 62.63 63.54 65.48 65.95 66.36 66.04 64.83 65.82 65.36 65.23 64.14 63.77 63.46 63.99 64.63 66.90 67.99 68.92 71.19 70.49 72.02
MSLP
1007.24 1008.50 1009.81 1010.22 1010.69 1010.91 1010.96 1011.09 1011.32 1011.70 1011.95 1012.21 1012.62 1012.98 1013.31 1013.38 1013.46 1013.70 1013.91 1014.12 1014.29 1014.46 1014.59 1014.73 1014.82 1014.89 1014.98 1015.01 1015.06 1015.13 1015.18 1015.26 1015.27 1015.28 1015.35 1015.41 1015.50 1015.60 1015.67 1015.71 1015.50 1014.67 1015.79
1007.40 1008.79 1010.08 1010.34 1010.78 1011.12 1011.26 1011.41 1011.63 1011.85 1012.15 1012.55 1012.88 1013.17 1013.45 1013.57 1013.72 1013.98 1014.22 1014.43 1014.53 1014.63 1014.78 1014.91 1015.03 1015.08 1015.18 1015.23 1015.30 1015.40 1015.45 1015.54 1015.57 1015.52 1015.47 1015.50 1015.50 1015.59 1015.69 1015.74 1015.69 1015.40 1015.92
1007.82 1009.04 1010.07 1010.61 1010.91 1011.25 1011.53 1011.80 1011.96 1012.08 1012.42 1012.72 1013.09 1013.41 1013.58 1013.69 1013.96 1014.23 1014.43 1014.68 1014.84 1014.95 1015.02 1015.11 1015.22 1015.29 1015.35 1015.40 1015.40 1015.47 1015.62 1015.72 1015.70 1015.64 1015.43 1014.12 1014.26 1015.55 1015.72 1015.83 1015.90 1015.96 1016.06
1008.31 1009.22 1009.72 1010.88 1011.14 1011.47 1011.76 1012.07 1012.11 1012.32 1012.55 1012.84 1013.18 1013.45 1013.70 1013.92 1014.15 1014.45 1014.66 1014.77 1014.93 1015.06 1015.16 1015.26 1015.35 1015.41 1015.45 1015.51 1015.55 1015.61 1015.60 1015.71 1015.79 1015.74 1014.83 1013.86 1013.99 1015.55 1015.77 1015.86 1015.97 1016.04 1016.11
1008.49 1009.09 1009.93 1011.08 1011.43 1011.74 1011.99 1012.25 1012.39 1012.58 1012.79 1013.01 1013.34 1013.60 1013.79 1014.08 1014.33 1014.57 1014.78 1014.91 1015.01 1015.21 1015.26 1015.34 1015.45 1015.53 1015.55 1015.60 1015.68 1015.74 1015.82 1015.73 1015.70 1015.56 1013.80 1013.85 1013.93 1014.73 1015.53 1015.79 1015.91 1015.93 1015.99
1008.58 1008.98 1010.62 1011.13 1011.45 1011.76 1011.97 1012.29 1012.58 1012.79 1013.12 1013.29 1013.46 1013.67 1013.92 1014.13 1014.41 1014.60 1014.83 1015.03 1015.19 1015.27 1015.42 1015.49 1015.54 1015.64 1015.67 1015.70 1015.77 1015.82 1015.83 1015.83 1015.74 1014.42 1014.12 1014.12 1014.33 1014.97 1015.36 1015.63 1015.65 1015.78 1015.96
1008.30 1008.90 1010.52 1011.40 1011.62 1011.87 1012.11 1012.41 1012.64 1012.84 1013.09 1013.33 1013.56 1013.82 1014.01 1014.19 1014.42 1014.61 1014.82 1015.06 1015.18 1015.32 1015.44 1015.58 1015.72 1015.70 1015.75 1015.75 1015.75 1015.78 1015.79 1015.78 1015.18 1013.58 1013.63 1013.99 1013.65 1014.58 1015.10 1015.40 1015.57 1015.71 1015.84
1008.25 1008.82 1010.22 1011.49 1011.77 1011.97 1012.23 1012.51 1012.80 1012.96 1013.13 1013.39 1013.66 1013.89 1014.04 1014.29 1014.54 1014.78 1014.94 1015.03 1015.18 1015.35 1015.47 1015.56 1015.74 1015.80 1015.77 1015.76 1015.74 1015.74 1015.78 1015.68 1014.86 1013.86 1013.52 1013.42 1013.78 1014.48 1014.87 1015.20 1015.32 1015.47 1015.61
1008.26 1008.82 1009.73 1010.64 1011.56 1012.12 1012.41 1012.63 1012.85 1013.05 1013.32 1013.57 1013.79 1014.01 1014.20 1014.38 1014.54 1014.74 1014.95 1015.14 1015.32 1015.46 1015.57 1015.60 1015.60 1015.68 1015.67 1015.70 1015.66 1015.64 1015.61 1015.58 1014.87 1013.29 1013.21 1013.18 1014.06 1014.39 1014.66 1014.86 1015.17 1015.38 1015.52
1008.15 1008.51 1009.06 1009.74 1010.60 1011.20 1011.84 1012.68 1012.93 1013.17 1013.42 1013.68 1013.90 1014.12 1014.33 1014.53 1014.70 1014.75 1014.96 1015.03 1015.17 1015.31 1015.45 1015.52 1015.57 1015.62 1015.56 1015.52 1015.44 1015.44 1015.39 1015.27 1014.69 1013.57 1012.79 1012.70 1013.78 1014.39 1014.56 1014.75 1014.97 1015.17 1015.42
1007.85 1008.32 1008.80 1009.41 1009.97 1010.32 1010.35 1012.01 1012.94 1013.21 1013.53 1013.77 1013.93 1014.16 1014.32 1013.71 1013.95 1014.24 1014.31 1014.71 1015.03 1015.19 1015.26 1015.30 1015.33 1015.35 1015.41 1015.30 1015.17 1015.23 1015.28 1014.14 1013.31 1012.79 1012.46 1012.94 1013.61 1014.22 1014.38 1014.48 1014.64 1014.83 1014.98
1007.33 1007.93 1008.45 1009.49 1009.77 1010.02 1010.28 1011.02 1011.69 1012.12 1012.52 1012.81 1013.07 1013.48 1013.38 1013.19 1013.35 1013.43 1013.89 1014.64 1014.91 1015.03 1015.01 1014.99 1015.00 1015.06 1015.09 1013.98 1013.35 1014.40 1014.13 1013.26 1012.60 1012.18 1012.07 1012.68 1013.31 1013.86 1014.03 1014.06 1014.21 1014.36 1014.52
1006.91 1007.69 1008.40 1009.11 1009.75 1009.83 1010.26 1010.85 1011.28 1011.46 1011.79 1012.31 1012.65 1012.93 1012.97 1013.06 1013.35 1013.46 1013.39 1013.52 1013.85 1014.10 1013.87 1013.74 1013.78 1013.80 1013.18 1012.91 1012.58 1012.42 1012.31 1012.35 1012.14 1011.91 1011.73 1012.22 1012.78 1013.27 1013.52 1013.58 1013.61 1013.80 1014.02
1007.34 1007.79 1008.40 1008.98 1009.69 1010.09 1009.96 1010.66 1010.72 1011.67 1011.88 1012.36 1012.65 1013.05 1013.15 1013.35 1013.41 1013.59 1013.00 1012.99 1013.31 1013.21 1013.22 1013.08 1012.78 1012.79 1013.03 1013.03 1012.74 1012.44 1012.18 1011.97 1011.74 1011.53 1011.41 1011.87 1012.41 1012.83 1012.97 1012.87 1012.89 1013.06 1013.34
1007.57 1008.04 1008.65 1009.21 1009.71 1010.20 1010.64 1010.41 1010.66 1010.93 1011.63 1011.96 1012.38 1012.85 1013.19 1013.26 1013.62 1014.00 1014.33 1014.36 1014.28 1013.99 1013.91 1013.71 1013.06 1012.67 1012.51 1012.44 1012.38 1011.97 1011.77 1011.58 1011.47 1011.26 1011.04 1011.29 1011.83 1012.16 1012.44 1012.42 1012.37 1012.29 1012.40
1007.77 1008.27 1008.49 1009.09 1009.90 1010.62 1010.63 1010.77 1010.88 1011.00 1011.14 1011.70 1011.98 1012.14 1012.91 1012.87 1013.11 1013.03 1013.43 1013.45 1013.54 1013.91 1013.74 1013.16 1012.81 1012.78 1012.47 1012.10 1011.58 1011.46 1011.27 1010.98 1010.76 1010.64 1010.32 1010.16 1010.64 1011.02 1011.40 1011.63 1011.63 1011.68 1011.73
1007.75 1008.15 1008.63 1009.12 1009.70 1010.39 1010.72 1010.90 1010.88 1010.87 1010.95 1011.25 1011.89 1012.34 1012.57 1013.07 1013.28 1013.29 1013.18 1012.99 1012.64 1012.76 1013.05 1012.71 1012.40 1012.14 1012.10 1011.74 1011.36 1011.17 1010.74 1010.41 1010.29 1010.20 1010.02 1009.70 1009.38 1009.82 1010.00 1010.42 1010.64 1010.78 1010.82
1008.09 1008.26 1008.53 1008.68 1009.47 1010.24 1010.78 1010.94 1011.17 1010.94 1011.20 1011.20 1011.87 1012.37 1012.58 1012.62 1012.86 1013.17 1012.76 1012.73 1012.66 1012.90 1012.45 1012.33 1012.23 1011.82 1011.43 1011.05 1010.84 1010.80 1010.15 1009.59 1009.25 1009.17 1009.01 1008.86 1008.59 1008.41 1008.53 1009.04 1009.41 1009.68 1009.89
1008.37 1008.62 1008.86 1009.01 1009.35 1010.19 1010.85 1010.86 1010.96 1011.43 1011.29 1011.52 1011.72 1011.85 1012.49 1012.61 1012.83 1012.92 1012.72 1012.69 1013.04 1012.68 1012.47 1012.31 1012.03 1011.72 1011.25 1010.79 1010.28 1009.80 1009.67 1009.41 1009.09 1008.28 1007.94 1007.92 1007.82 1007.83 1007.61 1007.37 1008.17 1008.61 1008.78
1008.68 1008.98 1009.12 1009.16 1009.68 1010.34 1010.78 1010.99 1010.92 1011.28 1011.52 1011.71 1011.96 1012.33 1012.86 1012.94 1013.03 1013.06 1012.77 1013.05 1013.02 1012.60 1012.39 1012.22 1012.33 1011.87 1011.43 1010.89 1010.16 1009.74 1009.09 1008.58 1008.59 1008.70 1008.16 1007.38 1007.07 1006.92 1006.89 1006.87 1006.71 1007.16 1007.71
1009.22 1009.40 1009.54 1009.79 1010.32 1010.44 1010.72 1010.72 1011.03 1011.13 1011.67 1011.97 1012.43 1012.95 1013.07 1013.20 1013.35 1013.38 1013.03 1012.96 1012.84 1012.65 1012.63 1012.64 1012.10 1011.44 1011.00 1010.79 1010.08 1008.86 1008.48 1008.08 1007.60 1007.45 1007.40 1006.57 1006.05 1005.90 1005.75 1005.85 1005.87 1005.66 1005.52
1009.82 1010.10 1010.29 1010.53 1010.75 1010.80 1011.07 1011.12 1011.01 1011.35 1011.76 1012.25 1012.61 1013.10 1013.34 1013.47 1013.63 1013.59 1013.48 1013.12 1012.87 1012.65 1012.38 1012.16 1011.99 1011.50 1010.68 1010.46 1010.28 1009.30 1008.11 1007.31 1006.55 1005.78 1005.39 1005.62 1005.46 1005.03 1004.62 1004.70 1004.79 1004.68 1004.72
1010.33 1010.59 1010.75 1010.95 1011.07 1011.16 1011.42 1011.73 1012.00 1012.19 1012.32 1012.38 1012.71 1012.98 1013.34 1013.69 1013.79 1013.80 1013.66 1013.46 1013.24 1013.00 1012.03 1011.78 1011.72 1011.28 1010.32 1009.77 1009.86 1010.03 1008.59 1006.64 1005.55 1004.95 1004.62 1004.23 1004.63 1004.57 1004.26 1004.04 1003.79 1003.77 1004.03
1010.67 1011.01 1011.27 1011.43 1011.59 1011.73 1011.66 1011.81 1011.97 1011.80 1011.97 1012.77 1013.05 1013.20 1013.69 1013.70 1013.77 1013.69 1013.55 1013.28 1013.06 1012.66 1012.17 1011.69 1011.17 1010.97 1010.63 1009.47 1009.02 1008.82 1008.80 1008.31 1007.28 1005.77 1004.95 1004.19 1003.93 1004.32 1004.41 1004.21 1004.06 1004.13 1004.14
1010.99 1011.40 1011.82 1012.08 1012.24 1012.43 1012.56 1012.48 1012.22 1012.54 1012.70 1012.99 1013.16 1013.55 1013.60 1013.41 1013.41 1013.30 1013.21 1013.11 1012.93 1012.56 1011.91 1011.61 1011.22 1010.71 1010.15 1009.42 1008.59 1008.25 1008.06 1007.18 1006.74 1006.76 1005.62 1004.65 1003.96 1003.10 1002.89 1003.33 1003.56 1004.07 1004.25
1011.33 1011.63 1012.01 1012.35 1012.64 1012.75 1012.81 1013.03 1013.14 1013.22 1013.30 1013.27 1013.40 1013.59 1013.21 1013.22 1013.10 1013.03 1013.06 1013.08 1012.87 1012.44 1011.83 1011.26 1010.84 1010.42 1009.93 1009.33 1008.73 1008.19 1007.94 1007.58 1006.20 1005.40 1005.21 1004.62 1003.97 1003.11 1002.69 1002.99 1003.73 1004.29 1004.31
Wind_Speed
10 16 12 12 9 9 10 11 13 13 12 14 13 13 12 13 13 13 12 10 9 10 8 6 4 6 5 5 7 8 9 8 9 9 9 8 7 6 5 5 6 8 7
13 16 12 12 10 11 11 11 13 13 14 13 14 13 13 13 12 11 10 9 9 9 7 6 5 7 6 6 7 7 7 7 7 8 8 9 7 7 5 4 4 9 5
14 15 14 11 10 10 12 11 13 14 14 14 13 12 12 12 12 11 10 9 8 6 5 5 5 5 5 5 6 7 6 6 7 7 9 11 11 9 6 5 2 4 4
14 14 14 12 10 11 11 11 12 13 13 13 12 12 12 11 11 11 10 10 8 6 5 4 3 3 3 4 5 6 6 6 6 7 11 3 7 9 6 5 5 4 4
14 14 14 12 11 11 11 10 11 11 12 13 12 12 12 11 10 9 9 9 8 5 4 4 3 3 3 3 4 5 6 7 7 10 8 3 3 13 8 6 8 9 6
14 13 17 13 13 12 12 11 11 12 12 12 13 13 12 12 11 10 9 8 7 5 4 3 3 2 3 3 4 5 6 7 8 14 5 5 7 12 9 8 6 2 5
13 12 14 11 11 12 12 12 11 11 11 12 12 13 12 11 11 10 10 8 7 6 5 4 3 2 3 4 5 6 6 8 12 11 6 6 7 11 9 9 8 7 7
12 12 15 12 10 10 11 11 10 10 10 11 11 11 11 11 10 9 9 8 7 6 5 5 4 4 4 5 6 7 7 9 12 13 7 8 8 9 11 10 10 9 9
11 11 12 13 11 10 10 10 11 10 9 9 9 9 9 10 10 9 8 7 6 5 6 6 6 6 6 7 7 8 9 10 13 10 8 7 9 4 11 12 11 10 10
10 10 11 11 13 12 12 11 10 10 9 9 8 8 8 8 8 9 7 8 8 7 7 6 6 7 7 9 9 10 10 11 14 14 10 6 7 2 9 12 12 11 11
8 9 9 10 10 10 11 12 10 10 9 8 9 8 9 9 11 12 9 8 8 7 7 7 7 8 9 11 12 11 11 10 14 11 9 12 8 5 10 12 12 12 13
9 9 9 8 9 9 6 11 10 10 10 9 9 10 8 6 5 5 2 6 6 9 9 10 10 9 10 10 9 13 9 13 11 11 9 12 9 9 12 13 14 14 15
5 6 7 9 9 9 8 6 5 5 6 6 8 8 6 5 5 6 5 6 8 14 9 12 12 11 11 8 8 8 9 10 8 9 12 11 11 12 15 14 15 17 17
2 4 6 8 9 9 6 8 8 6 5 4 3 5 3 4 2 4 4 3 4 5 6 7 6 8 9 11 12 13 13 11 8 8 10 11 11 13 18 17 17 18 19
5 4 5 7 8 7 8 6 6 6 7 7 6 7 5 5 2 2 3 4 6 7 7 7 9 8 10 11 12 13 14 14 15 10 9 7 12 14 18 19 19 18 21
3 3 4 7 8 10 9 7 5 4 6 5 4 4 6 4 3 2 2 3 5 5 7 7 8 8 10 11 12 13 14 14 15 16 12 12 17 18 19 20 20 19 21
6 4 6 7 9 9 7 8 5 5 5 6 6 5 4 2 4 3 4 5 4 4 7 8 8 9 10 11 13 14 14 15 15 16 15 13 13 20 21 21 21 21 22
7 6 7 6 8 9 9 7 6 5 5 4 5 6 7 6 4 4 4 5 6 7 7 8 9 10 11 11 10 12 12 13 15 16 15 14 13 12 16 21 22 22 23
6 6 6 7 9 8 7 6 5 6 4 4 4 3 5 4 2 3 3 4 6 7 8 9 10 11 11 12 13 13 12 10 14 14 16 16 17 15 12 14 23 22 24
4 5 6 7 8 7 7 7 6 6 5 5 5 6 4 4 3 4 4 4 6 7 8 9 11 12 13 13 13 15 15 13 12 10 15 14 16 17 16 17 13 15 23
7 7 8 9 9 7 7 6 7 7 7 6 6 6 5 5 4 4 5 5 6 7 9 10 11 12 11 11 14 13 14 15 15 15 14 15 16 17 17 16 12 12 13
10 10 11 11 10 8 6 5 6 6 5 5 5 4 4 4 5 6 7 8 8 8 10 10 10 11 11 9 12 13 13 12 14 15 13 13 17 15 16 18 18 17 14
12 12 12 12 12 10 11 9 7 7 5 4 3 1 3 5 6 7 9 9 9 9 10 9 11 13 13 11 12 9 9 12 12 10 12 11 12 12 13 15 16 17 15
11 11 11 11 11 9 8 7 7 4 2 4 2 2 5 5 7 9 10 10 11 11 12 11 11 10 11 13 12 10 13 15 12 13 11 11 10 12 14 13 12 10 11
9 9 8 9 10 9 8 6 4 2 3 0 3 4 6 6 8 11 11 12 12 11 12 14 14 13 12 13 13 12 13 14 13 8 12 12 14 13 11 11 11 8 13
7 7 7 7 7 6 6 6 5 3 2 4 4 6 6 7 8 10 11 12 13 13 14 13 14 15 13 13 13 14 12 11 13 12 12 13 14 14 12 11 4 8 10
Wind_Direction
152 135 149 147 141 136 135 131 132 135 134 139 148 151 150 140 132 133 135 133 121 123 125 127 134 153 129 121 131 128 133 143 142 136 138 138 137 140 142 143 201 137 117
144 140 149 144 140 135 137 131 132 131 135 141 148 149 146 137 132 133 137 132 128 131 128 125 125 136 129 122 134 138 146 150 151 152 156 156 152 159 162 174 274 89 132
140 141 157 143 142 137 136 136 133 131 134 137 141 141 138 134 136 138 139 139 135 134 127 130 130 134 137 134 140 148 157 164 170 178 198 205 157 172 178 184 190 128 160
139 148 150 147 146 144 140 139 129 129 131 131 136 139 137 135 141 146 149 151 154 153 149 142 141 150 149 155 162 169 173 182 195 205 224 179 132 153 190 192 190 186 190
149 154 133 148 146 149 145 137 130 129 132 134 137 139 141 142 145 150 157 161 162 165 164 158 153 162 174 180 185 188 198 199 210 225 257 230 284 148 183 197 192 200 213
151 159 131 148 149 152 149 147 141 138 140 141 143 146 148 150 152 153 160 165 169 169 167 165 161 173 193 201 209 211 215 224 229 231 224 170 270 129 172 205 246 200 192
152 150 150 145 145 148 149 154 153 148 147 149 151 154 155 154 157 161 166 174 177 179 177 173 184 198 218 224 228 231 233 237 245 242 235 264 255 144 181 208 220 212 196
147 152 141 143 145 146 152 156 158 154 153 154 155 158 156 157 161 166 172 179 186 189 193 190 194 213 231 237 242 248 252 250 239 261 250 261 119 160 193 211 208 205 195
146 160 157 165 153 149 153 156 161 158 156 155 154 155 155 159 161 168 177 190 202 209 210 207 203 214 224 237 242 245 250 255 265 263 248 249 96 183 211 207 211 208 201
156 167 165 167 174 178 164 165 166 163 159 154 156 155 157 162 174 181 182 196 205 210 218 225 228 231 233 235 238 240 245 252 252 260 255 245 90 237 213 210 214 212 209
169 168 177 172 179 199 170 154 165 164 163 159 167 170 172 207 182 180 201 143 201 222 230 236 239 241 247 244 236 241 248 246 245 240 250 120 134 220 227 221 215 212 209
176 179 185 183 199 192 194 156 188 172 185 189 189 177 215 205 214 281 76 175 229 241 244 239 236 239 242 259 212 205 238 251 251 254 253 138 162 216 237 233 223 213 208
167 163 201 170 203 201 195 189 179 183 186 187 195 197 209 188 197 210 232 208 220 209 243 212 214 222 235 261 272 266 261 255 257 259 259 162 182 216 235 236 236 220 212
188 183 186 194 196 207 200 196 177 185 172 195 197 193 224 230 216 285 263 273 244 260 292 276 268 268 272 273 265 266 267 265 264 258 261 175 193 223 240 234 234 230 216
191 181 200 198 202 194 213 198 203 187 189 180 181 188 201 216 234 287 326 332 322 339 315 290 290 290 273 251 258 260 259 260 262 264 265 205 202 221 242 244 241 235 219
242 218 198 199 177 189 202 200 187 200 153 197 185 164 188 229 211 288 286 275 234 225 256 259 261 264 276 294 271 260 260 260 255 255 256 255 197 213 229 239 238 238 228
223 197 194 194 175 189 174 196 194 170 177 160 177 176 196 194 179 282 295 282 301 314 289 263 272 272 265 260 275 278 269 258 256 256 257 256 255 208 214 223 231 232 229
260 186 192 188 164 172 157 179 169 153 166 155 148 165 186 187 203 200 277 320 347 303 294 290 288 284 281 278 271 275 278 272 257 254 250 252 251 259 217 214 218 224 227
241 218 206 181 169 164 138 164 148 131 173 155 165 154 141 138 150 281 298 333 324 303 298 299 292 287 286 278 278 270 267 267 281 264 254 251 251 253 259 224 209 216 222
188 177 165 175 144 155 153 161 156 146 133 127 123 94 126 88 66 335 333 319 304 309 309 315 310 294 294 286 286 289 286 274 268 269 277 257 256 257 250 247 233 216 217
116 131 142 141 144 158 163 155 152 137 124 116 97 88 83 47 20 331 305 305 302 301 312 298 298 297 288 290 290 276 272 270 261 254 251 260 257 251 246 245 237 244 216
101 107 109 112 120 125 132 79 101 120 106 101 102 92 60 15 333 301 311 308 303 299 290 293 296 298 289 279 280 291 289 272 264 255 244 246 267 264 253 240 244 240 245
100 103 102 103 102 102 121 122 117 118 138 148 125 142 45 308 299 292 293 290 290 281 283 296 291 297 292 291 280 271 280 267 297 296 291 268 256 275 268 266 256 238 240
102 101 101 101 103 96 100 93 71 84 134 61 263 7 305 288 299 296 292 296 298 297 293 279 272 294 287 287 282 273 251 267 282 286 280 283 267 258 267 273 277 276 270
115 104 99 98 93 88 82 86 136 94 132 347 321 332 309 289 302 306 307 308 301 292 296 298 286 279 285 285 281 272 275 273 260 262 279 279 278 270 240 244 260 255 257
128 121 112 99 90 87 83 80 79 103 16 320 335 308 301 313 305 304 311 308 305 296 287 289 292 282 276 284 290 289 278 271 275 272 256 262 271 273 281 284 253 276 278